STARLINK-31758 (59621 NORAD) Tracking and Keplerian Element Data

This shows tracking and keplerian element data for the satellite.

Feedback or suggestion? Click here.




ElementValue
Catalog59621
NameSTARLINK-31758
Epoch Orbit745
Epoch Day160.18049164
Epoch Year2024
RAAN87.9769
Inclination43.0011
Eccentricity0.0002043
Argument of Perigee265.7618
Mean Anonmoly94.3005
Mean Motion15.40692297
Decay Rate1.252E-05
L11 59621U 24080W 24160.18049164 .00001252 00000+0 37236-4 0 9997
L22 59621 43.0011 87.9769 0002043 265.7618 94.3005 15.40692297 7456



Live tracking and technical data element details for STARLINK-31758 (NORAD 59621). STARLINK-31758 can be tracked NOW for your location showing map with azimuth and elevation plus other details from your city location.







IsCatalogInMostPopularTable: catalog: 59621, numindb: 13
Update: records affected: 1



GetName: 59621 STARLINK-31758

Hit Count: updated at: Fri, 14 Jun 2024 17:57:14 GMT